Regional Weather Roundup
Issued by NWS

Home | Current Version | Previous Version | Text Only | Print | Product List | Glossary On
Versions: 1 2 3 4 5 6 7 8 9 10 11 12 13 14 15 16 17 18 19 20 21 22 23 24 25 26 27 28 29 30 31 32 33 34 35 36 37 38 39 40 41 42 43 44 45 46 47 48 49 50
000
ASUS45 KBOI 310410
RWRID
WEATHER ROUNDUP FOR IDAHO
NATIONAL WEATHER SERVICE BOISE ID
1000 PM MDT SAT AUG 30 2014

NOTE: "FAIR" INDICATES FEW OR NO CLOUDS BELOW 12000 FEET
WITH NO SIGNIFICANT WEATHER AND/OR OBSTRUCTIONS TO VISIBILITY

IDZ012-014-310500-
SOUTHWEST IDAHO


CITY           SKY/WX    TMP DP  RH WIND       PRES   REMARKS
BOISE          LGT RAIN  61  49  64 NW13      29.94R
CALDWELL       CLOUDY    59  45  58 W7        29.98R
MOUNTAIN HOME  LGT RAIN  59  54  83 NW33G44   29.92R
$$

IDZ016-017-310500-
SOUTHCENTRAL IDAHO


CITY           SKY/WX    TMP DP  RH WIND       PRES   REMARKS
BURLEY         CLOUDY    63  44  50 W7        29.88R
JEROME         MOCLDY    64  45  49 S5        29.89R
TWIN FALLS     PTCLDY    64  44  48 SW9       29.90R
$$

IDZ019>023-310500-
SOUTHEAST IDAHO


CITY           SKY/WX    TMP DP  RH WIND       PRES   REMARKS
IDAHO FALLS    CLOUDY    64  42  44 SW10      29.88S
POCATELLO      MOCLDY    67  41  38 SW12      29.89S
REXBURG        CLOUDY    54  43  66 NE12      29.91R
$$

IDZ006-010-011-018-031-032-310500-
CENTRAL IDAHO MOUNTAINS


CITY           SKY/WX    TMP DP  RH WIND       PRES   REMARKS
MCCALL         CLOUDY    55  41  59 SW6       29.97R
HAILEY         PTCLDY    64  37  36 NW5       29.92S
STANLEY          N/A     48  36  63 CALM      29.98S
SALMON         CLOUDY    57  54  88 CALM      29.90R
CHALLIS        CLOUDY    59  43  55 NW8       29.90R
$$

IDZ002-004-006-007-026-310500-
NORTHERN IDAHO


CITY           SKY/WX    TMP DP  RH WIND       PRES   REMARKS
LEWISTON       CLOUDY    69  48  47 S9        29.86R
LOWELL           N/A     60  58  92 CALM      29.92R
COEUR D`ALENE  CLOUDY    63  45  51 S7        29.83R
MULLAN PASS    MOCLDY    49  39  68 SW7       29.95R
$$


USA.gov is the U.S. government's official web portal to all federal, state and local government web resources and services.